046  
ASUS44 KFWD 102103  
RWRTX  
NORTH TEXAS HOURLY WEATHER ROUNDUP  
NATIONAL WEATHER SERVICE FORT WORTH TX  
300 PM CST FRI NOV 10 2017  
 
NOTE: "FAIR" INDICATES FEW OR NO CLOUDS BELOW 12,000 FEET WITH NO  
SIGNIFICANT WEATHER AND/OR S TO VISIBILITY
.  
 
TXZ118-119-102200-  
DALLAS/FORT WORTH METROPLEX  
 
CITY SKY/WX TMP DP RH WIND PRES REMARKS
 
DFW AIRPORT MOSUNNY 65 45 48 SE9 30.18F  
DALLAS LOVE PTSUNNY 63 46 54 SE10 30.20F  
FTW MEACHAM CLOUDY 64 47 53 E6 30.19F  
DAL-EXECUTIVE CLOUDY 61 47 59 SE9 30.19F  
FTW-ALLIANCE PTSUNNY 62 46 55 SE10 30.19F  
FTW-NAS-JRB PTSUNNY 62 45 53 SE6 30.20F  
FTW-SPINKS MOSUNNY 64 46 52 SE7 30.21F  
ARLINGTON SUNNY 61 46 57 SE7 30.20F  
GRAND PRAIRIE SUNNY 63 45 51 SE5 30.21F  
ADDISON SUNNY 64 43 45 SE10 30.20F  
MESQUITE MOSUNNY 64 41 42 SE7 30.21F  
LANCASTER CLOUDY 62 46 56 SE7 30.21F  

 
 
TXZ091>094-102>105-117-120-121-131>134-102200-  
NORTH CENTRAL TEXAS  
 
CITY SKY/WX TMP DP RH WIND PRES REMARKS
 
SHRMAN/DENISON SUNNY 64 37 38 S10 30.21F  
GAINESVILLE PTSUNNY 62 43 50 SE8 30.21F  
BOWIE PTSUNNY 60 46 61 S12 30.19F  
BRIDGEPORT CLOUDY 59 47 65 S5 30.21F  
DECATUR PTSUNNY 61 46 56 SE8 30.18F  
DENTON SUNNY 62 45 53 S12 30.20F  
MCKINNEY PTSUNNY 63 40 42 S12 30.20F  
BONHAM SUNNY 63 38 39 SE12 30.22F  
ROCKWALL CLOUDY 65 39 38 SE8 30.21F HAZE  
TERRELL MOSUNNY 65 35 33 SE7 30.21F  
WAXAHACHIE MOSUNNY 63 47 57 SE5 30.21F  
CLEBURNE MOSUNNY 63 48 59 SE7G13 30.21F  
GRANBURY CLOUDY 61 49 64 S6 30.21F  

 
 
TXZ083>090-098>101-113>116-127>130-139>142-154-155-102200-  
WESTERN NORTH TEXAS  
 
CITY SKY/WX TMP DP RH WIND PRES REMARKS
 
WICHITA FALLS CLOUDY 53 45 74 SE9 30.18F  
WF-KICKAPOO CLOUDY 54 46 76 SE8 30.21F  
VERNON CLOUDY 56 42 59 SE8 30.18F  
ABILENE CLOUDY 55 50 83 SE10 30.16F  
ABILENE-DYESS CLOUDY 56 51 81 SE10 30.15F  
GRAHAM N/A 57 48 70 E3 30.17F  
BRECKENRIDGE CLOUDY 61 48 62 MISG 30.17F  
CISCO CLOUDY 55 50 82 SE13 30.18F  
EASTLAND CLOUDY 56 49 77 S9 30.18F  
RANGER CLOUDY 56 49 75 SE9 30.18F  
MINERAL WELLS MOSUNNY 58 47 66 SE8 30.18F  
STEPHENVILLE CLOUDY 58 49 72 SE7 30.21F  
COMANCHE CLOUDY 54 52 94 SE7 30.20S  
BROWNWOOD CLOUDY 55 50 82 SE9 30.19F  
COLEMAN CLOUDY 54 50 87 SE12 30.18S  

 
 
TXZ143>147-156>162-174-175-102200-  
CENTRAL TEXAS  
 
CITY SKY/WX TMP DP RH WIND PRES REMARKS
 
WACO CLOUDY 62 47 57 CALM 30.20F  
WACO-TSTC CLOUDY 64 48 55 SE5 30.20F  
WACO-MCGREGOR CLOUDY 62 49 62 E7 30.20F  
HILLSBORO PTSUNNY 62 49 61 E7 30.20F  
CORSICANA CLOUDY 66 40 38 S8 30.22F  
MEXIA MOSUNNY 65 45 48 E10 30.20S  
HEARNE CLOUDY 65 46 50 SE3 30.21F  
CAMERON CLOUDY 65 48 55 SE3 30.20F  
TEMPLE CLOUDY 62 49 62 E7 30.21F  
KILLEEN CLOUDY 59 49 68 E6 30.19F  
KILLEEN-SKYLRK CLOUDY 61 49 64 VRB5 30.20F  
FORT HOOD CLOUDY 59 48 66 E5 30.16F  
GATESVILLE CLOUDY 59 48 67 CALM 30.21F  
HAMILTON CLOUDY 58 50 75 S7 30.21S  
LAMPASAS CLOUDY 58 51 78 SE7 30.19F  

 
 
TXZ095>097-106>112-122>126-135>138-148>153-164>167-102200-  
EAST TEXAS  
 
CITY SKY/WX TMP DP RH WIND PRES REMARKS
 
PARIS SUNNY 64 34 32 E12 30.23F  
SULPHUR SPRNGS SUNNY 66 34 30 S9 30.24F  
MOUNT PLEASANT SUNNY 65 36 34 E9 30.25S  
GILMER SUNNY 64 36 35 E5 30.23F  
MINEOLA SUNNY 64 39 39 E5 30.22F  
TYLER SUNNY 65 36 34 E7 30.21F  
LONGVIEW NOT AVBL  
MARSHALL SUNNY 65 35 33 E3 30.26S  
ATHENS MOSUNNY 63 36 36 E5 30.20F  
PALESTINE MOSUNNY 65 41 41 E6 30.23S  
JACKSONVILLE SUNNY 66 42 41 NE6 30.23F  
HENDERSON SUNNY 65 39 38 E6 30.23F  
CENTER CLEAR 65 37 36 E8 30.23F  
NACOGDOCHES SUNNY 68 42 38 E9 30.22F  
LUFKIN MOSUNNY 67 44 43 E9 30.21S  

 
 
SUPPLEMENTAL OBSERVATIONS (NWS FORT WORTH AREA)  
 
CITY SKY/WX TMP DP RH WIND PRES REMARKS
 

 
 
SUPPLEMENTAL OBSERVATIONS (NWS NORMAN AREA)  
 
CITY SKY/WX TMP DP RH WIND PRES REMARKS
 
GOODLETT N/A 52 43 73 SE12 30.15F  
ODELL N/A 54 45 70 SE10 30.18F  
CROWELL N/A 53 46 77 SE7 30.17F  
KNOX CITY N/A 55 47 77 SE9 30.17F  
SEYMOUR N/A 56 47 70 E8 30.17F  

 
 
SUPPLEMENTAL OBSERVATIONS (NWS SAN ANGELO AREA)  
 
CITY SKY/WX TMP DP RH WIND PRES REMARKS
 
WEINERT N/A 56 49 78 SE7 30.17F  
HASKELL N/A 56 49 76 E8 30.16F  
THROCKMORTON N/A 57 49 74 SE9 30.18F  
STAMFORD N/A 56 51 82 SE10 30.17F  
CLYDE N/A 55 49 80 SE12 30.18S  

 
 
SUPPLEMENTAL OBSERVATIONS (NWS SHREVEPORT AREA)  
 
CITY SKY/WX TMP DP RH WIND PRES REMARKS
 

 
 
SUPPLEMENTAL OBSERVATIONS ARE A COLLECTION OF AUTOMATED INSTRUMENTS  
THAT ARE MAINTAINED BY A VARIETY OF FEDERAL AND STATE AGENCIES.  
CERTAIN ELEMENTS...SUCH AS HUMIDITY VALUES AND SUSTAINED WIND  
SPEEDS...MAY BE APPROXIMATED.  
 
 
 
CLICK HERE TO GO TO PREVIOUS BULLETINS.

The Nexlab TX Page Main Text Page

The Nexlab TX Page Main Text Page